Content
SEND FEEDBACK

Daily
Averages
Monthly
Summary
United States of America

ST CHARLES, MISSOURI


Home > North America > United States > Missouri
Elevation: 600 feet     Latitude: 38 40N     Longitude: 090 44W

WEATHER
 
SELECT A DAY
Number of Records: 50,917;   Date Range: 2/9/12 - 7/27/14
 
SHARE

PRINT THIS DATA

[ ← Previous Day ]
WEATHER ALMANAC - FEBRUARY 5, 2013
[ Next Day → ]
[ °C ]   °F
Weather ElementAverageHighLow
Temperature37.9 °F55.4 °F (2:35 pm)23 °F (3:55 am)
Dewpoint28.6 °F32 °F (11:15 am)23 °F (1:35 am)
Humidity73.3 %100 % (12:55 am)38 % (4:15 pm)
Barometer29.98 in30.14 in (11:55 pm)29.90 in (1:15 pm)
Wind Speed5.4 mph18.4 mph (4:15 pm)
Wind Gust21.9 mph (3:15 pm)
Weather ElementAverage
Visibility7.9 mi
Wind DirectionSSW (186.6 °)

Weather ElementTotal
Precipitation---
Heating Degree Days25.8 (Base 65)
Averaged from 70 records on February 5, 2013
WEATHER CONDITIONS BREAKOUT
WIND DIRECTION BREAKOUT
WEATHER BY HOUR - FEBRUARY 5, 2013
[ °C ]   °F
Local TimeTemperatureDewpointHumidityBarometerVisibilityWind DirectionWind SpeedGust SpeedPrecipitationEventsConditions
12:35 AM28.4 °F24.8 °F86 %29.97 in9.0 miCalmClear
12:55 AM24.8 °F24.8 °F100 %29.97 in5.0 miCalmClear
1:15 AM26.6 °F24.8 °F93 %29.96 in6.0 miCalmClear
1:35 AM24.8 °F23.0 °F93 %29.97 in5.0 miCalmClear
1:55 AM24.8 °F24.8 °F100 %29.96 in5.0 miCalmClear
2:15 AM24.8 °F24.8 °F100 %29.96 in5.0 miCalmClear
2:35 AM24.8 °F24.8 °F100 %29.96 in5.0 miCalmClear
2:55 AM24.8 °F24.8 °F100 %29.95 in5.0 miNNW (340°)3.5 mphClear
3:15 AM24.8 °F24.8 °F100 %29.96 in5.0 miCalmClear
3:35 AM24.8 °F23.0 °F93 %29.96 in5.0 miCalmClear
3:55 AM23.0 °F23.0 °F100 %29.95 in5.0 miCalmClear
4:15 AM24.8 °F23.0 °F93 %29.95 in5.0 miCalmClear
4:35 AM23.0 °F23.0 °F100 %29.96 in5.0 miCalmPartly Cloudy
4:55 AM24.8 °F24.8 °F100 %29.96 in4.0 miCalmPartly Cloudy
5:15 AM24.8 °F24.8 °F100 %29.96 in5.0 miCalmPartly Cloudy
5:35 AM24.8 °F24.8 °F100 %29.94 in4.0 miSE (140°)3.5 mphScattered Clouds
5:55 AM26.6 °F26.6 °F100 %29.94 in4.0 miSSE (150°)3.5 mphMostly Cloudy
6:15 AM26.6 °F26.6 °F100 %29.93 in4.0 miSE (140°)4.6 mphOvercast
6:35 AM26.6 °F26.6 °F100 %29.93 in4.0 miSSE (150°)5.8 mphOvercast
6:55 AM26.6 °F24.8 °F93 %29.93 in5.0 miSE (130°)3.5 mphOvercast
7:15 AM26.6 °F24.8 °F93 %29.94 in5.0 miSE (130°)3.5 mphMostly Cloudy
7:35 AM26.6 °F24.8 °F93 %29.95 in3.0 miSE (140°)3.5 mphPartly Cloudy
7:55 AM26.6 °F26.6 °F100 %29.96 in4.0 miSSE (150°)4.6 mphClear
8:15 AM28.4 °F26.6 °F93 %29.96 in5.0 miSE (140°)4.6 mphClear
8:35 AM28.4 °F26.6 °F93 %29.96 in5.0 miSSE (150°)5.8 mphClear
8:55 AM28.4 °F26.6 °F93 %29.96 in5.0 miSSE (150°)4.6 mphClear
9:15 AM30.2 °F26.6 °F86 %29.96 in5.0 miSSE (150°)5.8 mphClear
9:35 AM32.0 °F28.4 °F87 %29.96 in6.0 miCalmClear
9:55 AM32.0 °F28.4 °F87 %29.96 in7.0 miCalmClear
10:15 AM35.6 °F28.4 °F75 %29.95 in9.0 miWSW (240°)5.8 mphClear
10:35 AM37.4 °F28.4 °F70 %29.96 in10.0 miSW (220°)4.6 mphClear
10:55 AM39.2 °F30.2 °F70 %29.96 in10.0 miWSW (240°)3.5 mphClear
11:15 AM41.0 °F32.0 °F70 %29.95 in10.0 miWNW (290°)4.6 mphClear
11:35 AM42.8 °F32.0 °F66 %29.94 in10.0 miNNW (330°)3.5 mphClear
11:55 AM44.6 °F32.0 °F61 %29.92 in10.0 miNW (310°)4.6 mphClear
12:15 PM46.4 °F32.0 °F57 %29.92 in10.0 miNW (310°)9.2 mphClear
12:35 PM48.2 °F32.0 °F54 %29.91 in10.0 miWNW (290°)12.7 mph16.1 mphClear
12:55 PM50.0 °F32.0 °F50 %29.91 in10.0 miWNW (300°)11.5 mph18.4 mphClear
1:15 PM51.8 °F32.0 °F47 %29.90 in10.0 miNW (310°)16.1 mphClear
1:35 PM53.6 °F32.0 °F44 %29.91 in10.0 miWNW (300°)15.0 mph18.4 mphClear
1:55 PM53.6 °F32.0 °F44 %29.90 in10.0 miWest (280°)12.7 mph18.4 mphClear
2:15 PM53.6 °F32.0 °F44 %29.91 in10.0 miWNW (300°)12.7 mph16.1 mphClear
2:35 PM55.4 °F32.0 °F41 %29.91 in10.0 miWNW (290°)13.8 mph20.7 mphClear
2:55 PM55.4 °F32.0 °F41 %29.91 in10.0 miWNW (300°)12.7 mph19.6 mphClear
3:15 PM55.4 °F32.0 °F41 %29.92 in10.0 miWNW (300°)13.8 mph21.9 mphClear
3:35 PM55.4 °F32.0 °F41 %29.92 in10.0 miWNW (300°)13.8 mph19.6 mphClear
3:55 PM55.4 °F32.0 °F41 %29.93 in10.0 miNW (310°)15.0 mph21.9 mphClear
4:15 PM55.4 °F30.2 °F38 %29.93 in10.0 miNW (310°)18.4 mphClear
4:35 PM55.4 °F32.0 °F41 %29.94 in10.0 miWNW (300°)11.5 mphClear
4:55 PM53.6 °F32.0 °F44 %29.95 in10.0 miNW (310°)11.5 mphClear
5:15 PM51.8 °F32.0 °F47 %29.97 in10.0 miNW (310°)10.4 mphClear
5:35 PM50.0 °F32.0 °F50 %29.97 in10.0 miNW (320°)8.1 mphClear
5:55 PM48.2 °F28.4 °F46 %29.98 in10.0 miNorth (360°)9.2 mphClear
6:15 PM48.2 °F28.4 °F46 %29.99 in10.0 miNorth (360°)6.9 mphClear
6:35 PM46.4 °F28.4 °F50 %30.00 in10.0 miNorth (360°)5.8 mphClear
6:55 PM46.4 °F28.4 °F50 %30.01 in10.0 miNorth (360°)9.2 mphClear
7:15 PM46.4 °F30.2 °F53 %30.02 in10.0 miNorth (360°)6.9 mphClear
7:35 PM46.4 °F30.2 °F53 %30.03 in10.0 miNorth (360°)6.9 mphClear
7:55 PM44.6 °F30.2 °F57 %30.04 in10.0 miNorth (350°)4.6 mphClear
8:15 PM41.0 °F30.2 °F65 %30.06 in10.0 miNNW (340°)5.8 mphClear
8:35 PM41.0 °F30.2 °F65 %30.06 in10.0 miNorth (350°)3.5 mphClear
9:15 PM41.0 °F32.0 °F70 %30.08 in10.0 miNorth (10°)4.6 mphClear
9:35 PM39.2 °F30.2 °F70 %30.10 in10.0 miCalmClear
9:55 PM39.2 °F30.2 °F70 %30.11 in10.0 miCalmClear
10:15 PM39.2 °F32.0 °F75 %30.11 in10.0 miNNW (340°)4.6 mphClear
10:35 PM39.2 °F32.0 °F75 %30.11 in10.0 miNNW (340°)5.8 mphClear
10:55 PM37.4 °F30.2 °F75 %30.12 in10.0 miNNW (340°)4.6 mphClear
11:15 PM35.6 °F30.2 °F81 %30.12 in10.0 miCalmClear
11:35 PM35.6 °F32.0 °F87 %30.13 in10.0 miCalmClear
11:55 PM32.0 °F28.4 °F87 %30.14 in10.0 miCalmClear
Hourly data recorded from KFYG, located miles away from St Charles, Missouri







STORIES FROM OUR PARTNERS